[[{"header":{"parameterUnit":"m.s-1","parameterCategory":1,"la1":30.2991,"la2":30.254,"lo1":-89.0895,"lo2":-89.0444,"dy":0.0017,"dx":0.0017,"nx":28,"ny":28,"refTime":"2023-10-23T09:00:00:Z","depth":0,"parameterNumber":2,"parameterNumberName":"U-component_of_WINDS"},"data":[0,0,0,0,0,0,0,0,0,0,0,0,0,0,0,0,0,0,0,0,0,0,0,0,0,0,0,0,0,0,0,0,0,0,0,0,0,0,0,0,0,0,0,0,0,0,0,0,0,0,0,0,0,0,0,0,0,0,-2.5255,-2.5255,0,-2.5321,-2.5322,-2.5323,-2.5311,-2.5309,-2.5308,-2.5307,-2.5375,-2.5378,-2.538,0,0,0,0,0,0,0,0,0,0,0,0,0,-2.5119,-2.5122,-2.5255,-2.5255,-2.5256,-2.5321,-2.5322,-2.5323,-2.5311,-2.5309,-2.5308,-2.5307,-2.5374,-2.5377,-2.5381,0,0,0,0,0,0,0,0,0,0,0,0,0,-2.5181,-2.5122,-2.5254,-2.5258,-2.5259,-2.5321,-2.5322,-2.5323,-2.5311,-2.5309,-2.5308,-2.5306,-2.5373,-2.5377,-2.5381,-2.5443,0,0,-2.5394,-2.5396,0,0,0,0,0,0,0,0,-2.5177,-2.5186,-2.5257,-2.5258,-2.5259,-2.5306,-2.5299,-2.5363,-2.5312,-2.5291,-2.5307,-2.5305,-2.5353,-2.5359,-2.5375,-2.5446,-2.5449,-2.5395,-2.5397,-2.5399,-2.5401,0,0,0,0,0,0,0,-2.5173,-2.5183,-2.5281,-2.5258,-2.5259,-2.5257,-2.5264,-2.5311,-2.5331,-2.5293,-2.5292,-2.53,-2.5354,-2.5371,-2.5377,-2.545,-2.5395,-2.5399,-2.5401,-2.5403,-2.5578,-2.558,0,0,0,0,0,0,-2.5168,-2.5179,-2.5279,-2.5283,-2.5213,-2.5261,-2.5269,-2.5293,-2.5331,-2.5335,-2.5302,-2.53,-2.5365,-2.5372,-2.5379,-2.5455,-2.5399,-2.5403,-2.5406,-2.5576,-2.5578,-2.558,0,0,0,0,0,0,-2.5165,-2.5177,-2.5276,-2.5231,-2.5244,-2.5265,-2.5292,-2.5295,-2.5312,-2.5337,-2.5341,-2.5316,-2.5364,-2.5373,-2.5428,-2.5457,-2.5405,-2.5409,-2.5573,-2.5577,-2.5579,-2.5606,0,0,0,0,0,0,-2.5161,-2.5176,-2.5199,-2.5232,-2.5246,-2.5323,-2.5294,-2.5297,-2.532,-2.5318,-2.5352,-2.5356,-2.5363,-2.5421,-2.5432,-2.5462,-2.5413,-2.5571,-2.5575,-2.5578,-2.5603,-2.561,-2.5616,0,0,0,0,0,-2.5156,-2.5203,-2.52,-2.5212,-2.5275,-2.5325,-2.5333,-2.534,-2.5322,-2.5346,-2.5363,-2.5355,-2.5453,-2.5427,-2.5439,-2.5471,-2.5569,-2.5574,-2.5578,-2.56,-2.5608,-2.5616,0,0,0,0,0,0,-2.5172,-2.5207,-2.5204,-2.5263,-2.5291,-2.5323,-2.5352,-2.5349,-2.5382,-2.5379,-2.5387,-2.5395,-2.545,-2.5467,-2.5437,-2.5534,-2.5508,-2.5516,-2.5521,-2.5529,-2.5536,-2.553,-2.5416,0,0,0,0,0,-2.5183,-2.522,-2.5249,-2.5298,-2.5313,-2.533,-2.5352,-2.5356,-2.5385,-2.5397,-2.5417,-2.5446,-2.5483,-2.5507,-2.5543,-2.5606,-2.5614,-2.5634,-2.5641,-2.5646,-2.5651,-2.5687,-2.5697,-2.5595,-2.5595,-2.5595,0,0,-2.5204,-2.5229,-2.5251,-2.5302,-2.5324,-2.5363,-2.534,-2.5381,-2.541,-2.5403,-2.5455,-2.5472,-2.5505,-2.5564,-2.5592,-2.5579,-2.5682,-2.5652,-2.5656,-2.5658,-2.5693,-2.5702,-2.5711,-2.5599,-2.5598,-2.5598,0,0,-2.5263,-2.5286,-2.5329,-2.5353,-2.5387,-2.5399,-2.541,-2.5443,-2.5453,-2.5507,-2.5503,-2.5538,-2.5602,-2.5626,-2.5646,-2.5718,-2.5712,-2.573,-2.5763,-2.5798,-2.5806,-2.5813,-2.5839,-2.5848,-2.5736,-2.5736,-2.5736,0,-2.5286,-2.5343,-2.5352,-2.5395,-2.5418,-2.5415,-2.5459,-2.5482,-2.5526,-2.5542,-2.5528,-2.561,-2.5632,-2.5697,-2.5715,-2.5732,-2.5745,-2.5725,-2.5804,-2.5811,-2.5818,-2.5842,-2.5852,-2.5738,-2.5738,-2.5738,-2.5737,0,-2.5369,-2.541,-2.5441,-2.5485,-2.5512,-2.5555,-2.5571,-2.5598,-2.5601,-2.5615,-2.567,-2.5697,-2.5739,-2.5755,-2.5758,-2.5822,-2.5813,-2.5802,-2.5776,-2.5829,-2.5852,-2.5862,-2.5741,-2.574,-2.5739,-2.5739,0,0,-2.5437,-2.5487,-2.5498,-2.5519,-2.5558,-2.5589,-2.5634,-2.5675,-2.5698,-2.573,-2.5767,-2.5824,-2.5814,-2.5837,-2.5843,-2.5874,-2.593,-2.5859,-2.586,-2.5871,-2.6003,-2.601,-2.6021,-2.5927,-2.5929,-2.5931,-2.6,0,-2.5499,-2.5576,-2.5587,-2.5656,-2.5694,-2.5694,-2.5733,-2.5761,-2.5777,-2.5812,-2.5829,-2.5868,-2.5853,-2.5867,-2.5898,-2.5916,-2.5956,-2.5912,-2.5962,-2.5964,-2.5952,-2.6033,-2.604,-2.6104,-2.6009,-2.6011,-2.6012,0,-2.558,-2.5615,-2.5688,-2.5724,-2.574,-2.5775,-2.5815,-2.5848,-2.5882,-2.5891,-2.5919,-2.5922,-2.5969,-2.5943,-2.6009,-2.5979,-2.6001,-2.6013,-2.6016,-2.6019,-2.5989,-2.6037,-2.6124,-2.6133,-2.6026,-2.6025,-2.6024,0,-2.5621,-2.5687,-2.5739,-2.5757,-2.58,-2.5824,-2.5844,-2.5876,-2.5901,-2.5936,-2.5953,-2.5994,-2.6015,-2.6047,-2.6062,-2.6042,-2.6127,-2.6102,-2.6136,-2.6135,-2.6151,-2.615,-2.6242,-2.6168,-2.6168,-2.6168,-2.6168,0,-2.5688,-2.5733,-2.5758,-2.579,-2.5841,-2.5854,-2.5904,-2.5923,-2.5952,-2.5988,-2.5991,-2.6025,-2.6042,-2.608,-2.6092,-2.6144,-2.6155,-2.6164,-2.6166,-2.6162,-2.6161,-2.6175,-2.6171,-2.6171,-2.617,-2.6169,-2.6169,0,-2.5741,-2.576,-2.5817,-2.5855,-2.5865,-2.5901,-2.5933,-2.5965,-2.5981,-2.6027,-2.6039,-2.6065,-2.6109,-2.6127,-2.6181,-2.619,-2.625,-2.625,-2.6239,-2.6239,-2.6271,-2.6268,-2.6374,-2.6389,-2.6307,-2.6308,-2.6308,0,-2.5781,-2.5816,-2.5858,-2.5882,-2.5903,-2.5942,-2.5968,-2.5984,-2.6011,-2.6054,-2.6081,-2.6125,-2.6161,-2.6233,-2.6256,-2.6299,-2.6298,-2.6333,-2.6304,-2.6301,-2.6298,-2.6295,-2.6299,-2.6337,-2.6338,-2.6339,-2.6339,0,-2.5851,-2.586,-2.5897,-2.5938,-2.597,-2.6003,-2.6035,-2.6056,-2.6077,-2.6108,-2.6153,-2.6182,-2.6238,-2.6282,-2.6327,-2.6347,-2.6347,-2.6349,-2.6359,-2.6354,-2.6346,-2.6351,-2.6251,-2.6346,-2.6345,-2.6345,-2.6344,-2.6344,-2.5899,-2.593,-2.5964,-2.6006,-2.6033,-2.6064,-2.6096,-2.6118,-2.6156,-2.6203,-2.6211,-2.626,-2.6295,-2.6354,-2.6377,-2.6416,-2.6407,-2.6422,-2.6425,-2.6428,-2.643,-2.6342,-2.6425,-2.6425,-2.6424,-2.6424,-2.6424,0,-2.5968,-2.5991,-2.603,-2.6076,-2.6109,-2.6108,-2.6145,-2.6173,-2.6216,-2.6249,-2.6285,-2.6339,-2.6383,-2.6412,-2.6456,-2.6482,-2.6484,-2.6493,-2.6491,-2.6496,-2.6436,-2.6422,-2.6492,-2.6492,-2.6492,-2.6492,-2.6492,-2.6492,-2.6007,-2.606,-2.6073,-2.614,-2.6163,-2.6211,-2.6232,-2.6261,-2.6288,-2.6348,-2.6384,-2.6403,-2.6435,-2.6483,-2.6523,-2.6531,-2.6547,-2.6557,-2.6564,-2.6507,-2.65,-2.6493,-2.648,-2.6561,-2.6561,-2.6621,-2.6621,-2.6622]},{"header":{"parameterUnit":"m.s-1","parameterCategory":1,"la1":30.2991,"la2":30.254,"lo1":-89.0895,"lo2":-89.0444,"dy":0.0017,"dx":0.0017,"nx":28,"ny":28,"refTime":"2023-10-23T09:00:00:Z","depth":0,"parameterNumber":3,"parameterNumberName":"V-component_of_WINDS"},"data":[0,0,0,0,0,0,0,0,0,0,0,0,0,0,0,0,0,0,0,0,0,0,0,0,0,0,0,0,0,0,0,0,0,0,0,0,0,0,0,0,0,0,0,0,0,0,0,0,0,0,0,0,0,0,0,0,0,0,1.9086,1.9086,0,1.9101,1.9101,1.9101,1.9116,1.9116,1.9116,1.9116,1.9127,1.9128,1.9128,0,0,0,0,0,0,0,0,0,0,0,0,0,1.9068,1.9068,1.9086,1.9086,1.9086,1.9101,1.9101,1.9101,1.9116,1.9116,1.9116,1.9116,1.9127,1.9128,1.9128,0,0,0,0,0,0,0,0,0,0,0,0,0,1.9079,1.9069,1.9086,1.9095,1.9096,1.9101,1.9101,1.9101,1.9116,1.9116,1.9116,1.9117,1.9127,1.9128,1.9128,1.9123,0,0,1.9128,1.9128,0,0,0,0,0,0,0,0,1.9078,1.9079,1.9094,1.9095,1.9096,1.9107,1.9099,1.9108,1.9116,1.9108,1.9116,1.9117,1.912,1.9121,1.9123,1.9123,1.9124,1.9128,1.9128,1.9128,1.9128,0,0,0,0,0,0,0,1.9077,1.9079,1.9092,1.9094,1.9095,1.9098,1.91,1.9101,1.9112,1.9109,1.911,1.9112,1.9121,1.9123,1.9123,1.9124,1.9128,1.9128,1.9128,1.9129,1.9122,1.9122,0,0,0,0,0,0,1.9076,1.9078,1.9091,1.9092,1.9088,1.9098,1.91,1.9103,1.9112,1.9114,1.9111,1.9112,1.9122,1.9123,1.9124,1.9119,1.9128,1.9129,1.9129,1.9123,1.9122,1.9122,0,0,0,0,0,0,1.9075,1.9077,1.9091,1.9085,1.9088,1.9098,1.9101,1.9103,1.9105,1.9114,1.9116,1.9112,1.9122,1.9123,1.9123,1.912,1.9129,1.9129,1.9123,1.9123,1.9122,1.911,0,0,0,0,0,0,1.9075,1.9076,1.9075,1.9085,1.9088,1.9091,1.9101,1.9103,1.9106,1.9107,1.9115,1.9116,1.9123,1.9123,1.9124,1.912,1.9129,1.9123,1.9123,1.9122,1.9111,1.9109,1.9108,0,0,0,0,0,1.9074,1.907,1.9075,1.9076,1.9086,1.9091,1.9092,1.9101,1.9105,1.9104,1.911,1.9116,1.912,1.9123,1.9124,1.912,1.9123,1.9123,1.9122,1.9112,1.911,1.9108,0,0,0,0,0,0,1.9056,1.9071,1.9077,1.9076,1.9082,1.9093,1.9091,1.9098,1.9102,1.9103,1.9112,1.9114,1.9113,1.9117,1.9119,1.9117,1.9123,1.9122,1.9114,1.9113,1.9112,1.9111,1.9129,0,0,0,0,0,1.9053,1.9056,1.9068,1.9066,1.9069,1.908,1.9082,1.9089,1.9095,1.9097,1.9103,1.9108,1.9111,1.9112,1.9115,1.9112,1.9114,1.911,1.9109,1.9107,1.9107,1.9107,1.9106,1.912,1.912,1.912,0,0,1.9045,1.9053,1.9054,1.9063,1.9069,1.9072,1.9082,1.9084,1.9086,1.9097,1.9098,1.9103,1.9109,1.9108,1.9107,1.9111,1.9104,1.9107,1.9106,1.9106,1.9106,1.9105,1.9104,1.912,1.912,1.912,0,0,1.9032,1.9038,1.9038,1.9044,1.9053,1.9061,1.9061,1.9071,1.9075,1.9077,1.9086,1.9088,1.9092,1.9097,1.9099,1.9091,1.9096,1.9091,1.9084,1.9084,1.9082,1.9082,1.9079,1.9078,1.909,1.909,1.909,0,1.902,1.9026,1.9037,1.9039,1.9043,1.9056,1.9056,1.906,1.9069,1.9071,1.9075,1.9082,1.9087,1.9088,1.9086,1.9088,1.9088,1.909,1.9082,1.9081,1.908,1.9078,1.9077,1.909,1.909,1.909,1.909,0,1.9012,1.9015,1.9014,1.9025,1.9028,1.9029,1.9041,1.9043,1.905,1.9056,1.9059,1.9065,1.907,1.9071,1.9077,1.9073,1.9075,1.908,1.9087,1.9078,1.9076,1.9075,1.9089,1.9089,1.9089,1.9089,0,0,1.8986,1.9005,1.9004,1.901,1.9022,1.9025,1.9027,1.9033,1.9036,1.9042,1.9044,1.9048,1.9054,1.9057,1.9063,1.9063,1.9057,1.9069,1.9069,1.9067,1.9055,1.9051,1.905,1.9061,1.9061,1.9061,1.9055,0,1.8976,1.8981,1.8992,1.8994,1.8998,1.9011,1.9013,1.902,1.9027,1.9031,1.9038,1.9041,1.9048,1.905,1.9051,1.9058,1.9055,1.9058,1.9063,1.9063,1.9061,1.9049,1.9044,1.9038,1.9054,1.9054,1.9054,0,1.8963,1.8971,1.8974,1.8987,1.8989,1.8991,1.8999,1.9003,1.9011,1.9016,1.9021,1.9029,1.9032,1.9038,1.9042,1.9044,1.9047,1.9051,1.9051,1.9051,1.9058,1.9049,1.9036,1.9035,1.9052,1.9053,1.9053,0,1.8946,1.8957,1.896,1.8964,1.898,1.8981,1.8987,1.8997,1.9,1.9007,1.901,1.9016,1.902,1.9024,1.9034,1.9037,1.9037,1.9043,1.9041,1.9041,1.904,1.904,1.9027,1.9041,1.9041,1.9041,1.9041,0,1.8933,1.8934,1.8953,1.8955,1.8957,1.897,1.8971,1.8979,1.8987,1.8991,1.9001,1.9004,1.9017,1.9021,1.9028,1.9031,1.9032,1.9036,1.9038,1.9035,1.9035,1.9037,1.9037,1.9041,1.9041,1.9041,1.9041,0,1.8913,1.8926,1.8931,1.8946,1.895,1.8951,1.8963,1.8966,1.8974,1.8979,1.898,1.8993,1.8999,1.9009,1.9017,1.9022,1.9023,1.9026,1.9021,1.9022,1.9019,1.902,1.9007,1.9007,1.9021,1.9021,1.9021,0,1.8904,1.8906,1.8922,1.8926,1.8933,1.8938,1.8943,1.8956,1.8961,1.8972,1.8973,1.8981,1.8987,1.8995,1.9005,1.9011,1.9015,1.901,1.9016,1.9014,1.9016,1.9016,1.9016,1.9009,1.9009,1.9008,1.9008,0,1.8887,1.8894,1.8901,1.8911,1.8917,1.8925,1.8933,1.8936,1.8951,1.8955,1.8962,1.8967,1.8977,1.8984,1.8992,1.8998,1.9006,1.9007,1.9007,1.9004,1.9001,1.9003,1.9018,1.9007,1.9007,1.9007,1.9007,1.9007,1.8873,1.8876,1.8888,1.8896,1.8904,1.8913,1.8916,1.8926,1.8933,1.8943,1.895,1.8957,1.8967,1.8979,1.8985,1.899,1.8993,1.8993,1.8993,1.8992,1.8992,1.9,1.8991,1.8991,1.8991,1.8991,1.8991,0,1.8857,1.8866,1.8873,1.8886,1.8893,1.8901,1.8911,1.8916,1.8922,1.8932,1.8939,1.8947,1.8955,1.8966,1.8974,1.8976,1.898,1.8978,1.8978,1.8979,1.8988,1.8987,1.8975,1.8975,1.8975,1.8975,1.8975,1.8975,1.8849,1.8855,1.8863,1.8873,1.8882,1.889,1.8895,1.8903,1.8911,1.8921,1.8928,1.8935,1.8946,1.8955,1.8962,1.8965,1.8968,1.8965,1.8969,1.8977,1.8978,1.898,1.8979,1.8965,1.8965,1.896,1.896,1.8959]}]]